Tracking 22993 objects as of 11-May-2021
HD Live streaming from Space Station
objects crossing your sky now

ARIANE 42L R/B

Track ARIANE 42L R/B now!
10-day predictions


NORAD ID: 25586
Int'l Code: 1998-075B
Perigee: 148.9 km
Apogee: 2,928.4 km
Inclination: 7.5 °
Period: 116.7 minutes
Semi major axis: 7909 km
RCS: 21.3079 m2 (large)
Launch date: December 22, 1998
Source: France (FR)
Launch site: FRENCH GUIANA (FRGUI)

Note: This is a ROCKET BODY
aabbcc
Your satellite tracking list
Your tracking list is empty




NASA's NSSDC Master Catalog

Two Line Element Set (TLE):
1 25586U 98075B   21131.06864832  .02726060 -15395-4  89676-3 0  9990
2 25586   7.4898 143.7665 1757013 268.1815  71.7293 12.34147004308726
Source of the keplerian elements: AFSPC